TimeCDT,TemperatureF,Dew PointF,Humidity,Sea Level PressureIn,VisibilityMPH,Wind Direction,Wind SpeedMPH,Gust SpeedMPH,PrecipitationIn,Events,Conditions,WindDirDegrees,DateUTC
12:52 AM,60.1,54.0,80,30.02,10.0,SE,3.5,-,N/A,,Clear,140,2013-07-04 05:52:00
1:52 AM,60.1,54.0,80,30.01,10.0,SSE,3.5,-,N/A,,Clear,150,2013-07-04 06:52:00
2:52 AM,59.0,54.0,83,30.01,10.0,SE,4.6,-,N/A,,Clear,140,2013-07-04 07:52:00
3:52 AM,61.0,53.1,75,30.01,10.0,SSE,3.5,-,N/A,,Clear,150,2013-07-04 08:52:00
4:52 AM,61.0,53.1,75,30.02,10.0,SE,3.5,-,N/A,,Clear,140,2013-07-04 09:52:00
5:52 AM,59.0,53.1,81,30.04,10.0,SE,5.8,-,N/A,,Clear,130,2013-07-04 10:52:00
6:52 AM,62.1,55.0,78,30.04,10.0,SE,4.6,-,N/A,,Clear,140,2013-07-04 11:52:00
7:52 AM,64.9,57.9,78,30.04,10.0,SSE,3.5,-,N/A,,Clear,160,2013-07-04 12:52:00
8:52 AM,69.1,61.0,75,30.05,10.0,South,5.8,-,N/A,,Clear,190,2013-07-04 13:52:00
9:52 AM,73.0,63.0,71,30.04,10.0,SSE,4.6,-,0.00,,Clear,160,2013-07-04 14:52:00
10:52 AM,75.9,64.0,67,30.04,10.0,South,4.6,-,N/A,,Clear,190,2013-07-04 15:52:00
11:52 AM,79.0,62.1,56,30.04,10.0,South,6.9,-,N/A,,Clear,190,2013-07-04 16:52:00
12:52 PM,80.1,59.0,48,30.03,10.0,Variable,4.6,-,N/A,,Clear,0,2013-07-04 17:52:00
1:52 PM,81.0,59.0,47,30.01,10.0,South,6.9,-,N/A,,Partly Cloudy,170,2013-07-04 18:52:00
2:52 PM,81.0,57.0,44,30.01,10.0,South,9.2,-,N/A,,Partly Cloudy,170,2013-07-04 19:52:00
3:52 PM,80.1,55.9,43,30.01,10.0,SSW,8.1,-,N/A,,Clear,200,2013-07-04 20:52:00
4:52 PM,82.0,57.9,44,30.00,10.0,SSE,6.9,-,N/A,,Scattered Clouds,160,2013-07-04 21:52:00
5:52 PM,81.0,55.9,42,29.99,10.0,South,8.1,-,N/A,,Scattered Clouds,180,2013-07-04 22:52:00
6:52 PM,79.0,57.9,48,29.98,10.0,SSW,5.8,-,N/A,,Scattered Clouds,200,2013-07-04 23:52:00
7:52 PM,77.0,60.1,56,29.98,10.0,South,4.6,-,N/A,,Scattered Clouds,180,2013-07-05 00:52:00
8:52 PM,73.0,61.0,66,29.97,10.0,SSE,3.5,-,N/A,,Clear,150,2013-07-05 01:52:00
9:52 PM,69.1,61.0,75,29.99,10.0,Calm,Calm,-,N/A,,Clear,0,2013-07-05 02:52:00
10:52 PM,68.0,60.1,76,29.99,9.0,SSE,3.5,-,N/A,,Clear,150,2013-07-05 03:52:00
11:52 PM,66.9,59.0,76,29.99,10.0,SE,3.5,-,N/A,,Clear,140,2013-07-05 04:52:00